Tacoma, WA
on Tuesday, November 13, 2012

Tuesday
Previous Day Next Day
Daily Summary
 ActualAverage (KSEA)Record (KSEA)
Temperature
Mean Temperature °F 46°F  
Max Temperature 51°F 51°F 62°F (1997)
Min Temperature 45°F 41°F 14°F (1955)
Degree Days
Heating Degree Days 17 19  
Month to date heating degree days 230  
Since 1 July heating degree days 827  
Cooling Degree Days 0 0  
Month to date cooling degree days 0  
Year to date cooling degree days 189  
Moisture
Dew Point 48°F   
Average Humidity 97    
Maximum Humidity 100    
Minimum Humidity 86    
Precipitation
Precipitation 0.14 in 0.23 in 1.68 in (1966)
Month to date precipitation 2.73  
Year to date precipitation 28.30  
Snow
Snow 0.00 in in 0.40 in (1964)
Month to date snowfall  
Since 1 July snowfall  
Snow Depth in   
Wind
Wind Speed 2 mph   
Max Wind Speed 6 mph   
Max Gust Speed mph   
Visibility 10 miles   
Events Rain   

Key: T is trace of precipitation, MM is missing value
Source: NWS Daily Summary
Time(PST)TemperatureDew PointHumidity Pressure Visibility Wind DirectionWind SpeedGust SpeedPrecipitationEvents Conditions
2:49 AM 46.4°F 46.4°F 100% 30.22 in 10.0 miles Variable 4.6 mph - N/A   Mostly Cloudy
2:58 AM 46.4°F 46.4°F 100% 30.23 in 10.0 miles Variable 4.6 mph - N/A   Mostly Cloudy
3:26 AM 48.2°F 46.4°F 93% 30.20 in 10.0 miles Variable 1.2 mph - N/A   Mostly Cloudy
3:37 AM 48.2°F 46.4°F 93% 30.20 in 10.0 miles SSE 1.2 mph - N/A Rain Light Rain
3:58 AM 46.6°F 46.2°F 99% 30.22 in 9.0 miles SSE 2.3 mph - 0.01 in Rain Light Rain
4:05 AM 46.4°F 46.4°F 100% 30.20 in 10.0 miles ESE 1.2 mph - N/A   Overcast
4:19 AM 46.4°F 46.4°F 100% 30.20 in 10.0 miles Calm Calm - N/A Rain Light Rain
4:34 AM 46.4°F 46.4°F 100% 30.20 in 10.0 miles Calm Calm - N/A   Overcast
4:42 AM 46.4°F 46.4°F 100% 30.21 in 10.0 miles WSW 2.3 mph - N/A Rain Light Rain
4:45 AM 46.4°F 46.4°F 100% 30.21 in 10.0 miles SW 2.3 mph - N/A   Overcast
4:49 AM 46.4°F 46.4°F 100% 30.21 in 10.0 miles Calm Calm - N/A Rain Light Rain
4:58 AM 46.4°F 46.2°F 99% 30.22 in 10.0 miles South 2.3 mph - 0.00 in Rain Light Rain
5:54 AM 48.2°F 48.2°F 100% 30.21 in 8.0 miles North - - N/A   Overcast
5:58 AM 48.0°F 47.7°F 99% 30.22 in 10.0 miles Variable 3.5 mph - 0.03 in   Overcast
6:58 AM 45.9°F 45.7°F 99% 30.22 in 10.0 miles SSE 5.8 mph - N/A   Scattered Clouds
7:58 AM 45.7°F 45.5°F 99% 30.22 in 10.0 miles East 2.3 mph - N/A   Overcast
8:58 AM 47.3°F 47.1°F 99% 30.22 in 10.0 miles South 3.5 mph - N/A   Overcast
9:58 AM 48.6°F 46.6°F 93% 30.22 in 10.0 miles South 1.2 mph - N/A   Overcast
9:59 AM 48.2°F 46.4°F 93% 30.20 in 10.0 miles North - - N/A Rain Light Rain
10:08 AM 48.2°F 46.4°F 93% 30.20 in 10.0 miles Calm Calm - N/A   Overcast
10:58 AM 50.0°F 46.4°F 87% 30.20 in 10.0 miles Calm Calm - N/A   Mostly Cloudy
11:01 AM 50.0°F 46.4°F 87% 30.20 in 10.0 miles Calm Calm - N/A   Mostly Cloudy
11:28 AM 50.0°F 46.4°F 87% 30.18 in 10.0 miles Calm Calm - N/A Rain Light Rain
11:58 AM 50.9°F 47.3°F 87% 30.19 in 8.0 miles West 3.5 mph - 0.01 in Rain Light Rain
12:03 PM 51.8°F 48.2°F 88% 30.17 in 9.0 miles WNW 3.5 mph - N/A   Overcast
12:58 PM 51.4°F 47.5°F 86% 30.17 in 10.0 miles NW 1.2 mph - 0.00 in   Overcast
1:01 PM 51.8°F 48.2°F 88% 30.16 in 10.0 miles Calm Calm - N/A Rain Light Rain
1:40 PM 51.8°F 48.2°F 88% 30.16 in 10.0 miles West 1.2 mph - N/A   Overcast
1:43 PM 51.8°F 48.2°F 88% 30.16 in 10.0 miles WNW 2.3 mph - N/A Rain Light Rain
1:58 PM 51.3°F 48.7°F 91% 30.16 in 10.0 miles WNW 2.3 mph - 0.00 in Rain Light Rain
2:03 PM 51.8°F 48.2°F 88% 30.16 in 10.0 miles WNW 2.3 mph - N/A Rain Light Rain
2:53 PM 50.0°F 50.0°F 100% 30.15 in 8.0 miles ENE 1.2 mph - N/A Rain Light Rain
2:58 PM 50.7°F 50.2°F 98% 30.15 in 8.0 miles East 1.2 mph - 0.03 in Rain Light Rain
3:28 PM 50.0°F 50.0°F 100% 30.15 in 10.0 miles NE 1.2 mph - N/A Rain Light Rain
3:38 PM 50.0°F 50.0°F 100% 30.15 in 10.0 miles Calm Calm - N/A Rain Light Rain
3:48 PM 50.0°F 50.0°F 100% 30.15 in 10.0 miles East 2.3 mph - N/A Rain Light Rain
3:53 PM 50.0°F 50.0°F 100% 30.15 in 10.0 miles East 3.5 mph - N/A Rain Light Rain
3:58 PM 50.5°F 50.4°F 99% 30.17 in 10.0 miles ESE 2.3 mph - 0.03 in Rain Light Rain
4:18 PM 50.0°F 50.0°F 100% 30.14 in 10.0 miles East 4.6 mph - N/A Rain Light Rain
4:23 PM 50.0°F 50.0°F 100% 30.14 in 10.0 miles ESE 4.6 mph - N/A Rain Light Rain
4:34 PM 50.0°F 50.0°F 100% 30.14 in 10.0 miles ESE 3.5 mph - N/A   Mostly Cloudy
4:39 PM 50.0°F 50.0°F 100% 30.14 in 10.0 miles ESE 4.6 mph - N/A Rain Light Rain
4:58 PM 49.1°F 48.9°F 99% 30.16 in 10.0 miles East 4.6 mph - 0.01 in Rain Light Rain
5:04 PM 48.2°F 48.2°F 100% 30.14 in 10.0 miles East 4.6 mph - N/A   Mostly Cloudy
5:58 PM 48.4°F 48.2°F 99% 30.16 in 10.0 miles East 1.2 mph - 0.00 in   Overcast
6:15 PM 48.2°F 48.2°F 100% 30.14 in 10.0 miles ESE 2.3 mph - N/A Rain Light Rain
6:46 PM 48.2°F 48.2°F 100% 30.14 in 10.0 miles SSE 1.2 mph - N/A   Overcast
6:58 PM 47.8°F 47.7°F 99% 30.14 in 7.0 miles SSE 1.2 mph - 0.00 in   Overcast
7:37 PM 48.2°F 48.2°F 100% 30.14 in 10.0 miles Calm Calm - N/A Rain Light Rain
7:39 PM 48.2°F 48.2°F 100% 30.14 in 10.0 miles Calm Calm - N/A   Overcast
7:58 PM 47.5°F 47.1°F 99% 30.14 in 10.0 miles SE 2.3 mph - 0.00 in   Overcast
8:58 PM 47.8°F 47.7°F 99% 30.17 in 10.0 miles SSE 4.6 mph - N/A   Overcast
9:45 PM 48.2°F 48.2°F 100% 30.16 in 10.0 miles SSW 3.5 mph - N/A Rain Light Rain
9:58 PM 48.2°F 48.0°F 99% 30.18 in 10.0 miles South 3.5 mph - 0.00 in Rain Light Rain
10:07 PM 48.2°F 48.2°F 100% 30.16 in 10.0 miles South 1.2 mph - N/A   Overcast
10:26 PM 48.2°F 48.2°F 100% 30.16 in 10.0 miles Calm Calm - N/A Rain Light Rain
10:45 PM 48.2°F 48.2°F 100% 30.17 in 10.0 miles Calm Calm - N/A   Overcast
10:58 PM 47.3°F 46.9°F 99% 30.17 in 10.0 miles South 1.2 mph - 0.01 in   Overcast
11:18 PM 46.4°F 46.4°F 100% 30.17 in 10.0 miles SSE 2.3 mph - N/A   Overcast
11:38 PM 48.2°F 48.2°F 100% 30.18 in 10.0 miles South 2.3 mph - N/A Rain Light Rain
11:58 PM 47.5°F 47.1°F 99% 30.20 in 10.0 miles South 2.3 mph - 0.01 in Rain Light Rain
Moon Phase
Nov. 13 Nov. 13 Nov. 20 Nov. 28 Dec. 06
Sunrise:07:11 AM (PST) Moon Rise:06:57 AM (PST)11/13
Sunset:04:36 PM (PST) Moon Set:04:31 PM (PST)11/13

Copyright © 2014 The Weather Underground, Inc.